Regional Weather Roundup
Issued by NWS Cleveland, OH

Home | Current Version | Previous Version | Text Only | Print | Product List | Glossary Off
Versions: 1 2 3 4 5 6 7 8 9 10 11 12 13 14 15 16 17 18 19 20 21 22 23 24 25 26 27 28 29 30 31 32 33 34 35 36 37 38 39 40 41 42 43 44 45 46 47 48 49 50

432
ASUS41 KCLE 112202
RWRCLE
OHIO REGIONAL WEATHER ROUNDUP
NATIONAL WEATHER SERVICE CLEVELAND, OH
500 PM EST THU FEB 11 2016

NOTE: "FAIR" INDICATES FEW OR NO CLOUDS BELOW 12,000 FEET WITH NO
SIGNIFICANT WEATHER AND/OR OBSTRUCTIONS TO VISIBILITY.

OHZ001>008-015>018-024>027-034-035-043-044-112300-
   NORTHWEST OHIO

CITY           SKY/WX    TMP DP  RH WIND       PRES   REMARKS
DEFIANCE       CLOUDY    21   7  54 NW8       30.27R WCI  11
FINDLAY        CLOUDY    21   4  47 NW10      30.25R WCI  10
TOLEDO EXPRESS CLEAR     20   4  50 W9        30.25R WCI   9
TOLEDO EXEC    MOCLDY    22   5  48 W14       30.26R WCI   9
LIMA           CLOUDY    20   7  57 NW8       30.25R WCI  10
$$

OHZ009>014-019>023-028>033-038-089-112300-
   NORTHEAST OHIO

CITY           SKY/WX    TMP DP  RH WIND       PRES   REMARKS
CLE-HOPKINS    CLOUDY    18   7  62 NW7       30.26R WCI   9
CLE-LAKEFRONT  FLURRIES  20   8  60 NW15      30.24R WCI   6
CUY CO. ARPT   FLURRIES  19   5  53 NW14G23   30.23R WCI   6
LORAIN-ELYRIA  CLOUDY    18   5  57 NW13      30.25R WCI   5
ASHTABULA      CLOUDY    16   2  54 NW12      30.20R WCI   3
AKRON-CANTON   MOCLDY    17   1  49 W15       30.20R WCI   2
WOOSTER        PTCLDY    14   2  58 W8        30.23R WCI   3
MANSFIELD      CLOUDY    16   3  56 W10       30.22R WCI   4
YOUNGSTOWN     FLURRIES  16   8  71 NW12      30.19R WCI   3
$$

OHZ042-051>053-060>062-070>072-077>081-112300-
  SOUTHWEST OHIO

CITY           SKY/WX    TMP DP  RH WIND       PRES   REMARKS
CINC-COVINGTON MOSUNNY   25   5  42 CALM      30.28R
CINC-LUNKEN    SUNNY     25   4  40 NW6       30.32R WCI  18
HAMILTON       MOSUNNY   25   4  40 NW5       30.31R WCI  19
DAYTON         PTSUNNY   21   8  57 N8        30.27R WCI  11
WRIGHT-PAT AFB CLOUDY    22   6  50 NW8       30.27R WCI  12
DAYTON GENERAL PTSUNNY   23   4  44 W8        30.26R WCI  14
WILMINGTON     MOSUNNY   21   4  47 W9        30.26R WCI  11
$$

OHZ036-037-039>041-045>050-054>059-063>069-073>076-082>088-112300-
  CENTRAL AND SOUTHEAST OHIO

CITY           SKY/WX    TMP DP  RH WIND       PRES   REMARKS
COLUMBUS       CLOUDY    19   7  59 W12       30.27R WCI   7
OSU AIRPORT    CLOUDY    20   9  62 NW10      30.26R WCI   9
BOLTON FIELD   PTSUNNY   19   9  63 W7        30.27R WCI  10
RICKENBACK AFB NOT AVBL
NEWARK         MOCLDY    19   5  54 W8        30.26R WCI   9
MARION         CLOUDY    20   4  50 NW9       30.25R WCI   9
LANCASTER      CLOUDY    20   9  62 SW7       30.27R WCI  11
ZANESVILLE     CLOUDY    21   7  54 NW14      30.25R WCI   8
NEW PHILLY     CLOUDY    19   5  54 NW10G18   30.26R WCI   7
$$




USA.gov is the U.S. government's official web portal to all federal, state and local government web resources and services.